User: anonymous   Login
Location: Unspecified
(0.0000°N, 0.0000°E)
Time: 18:27:41
(UTC+00:00)
Language:

NOSS 2-1 (C) - Orbit

View from above orbital plane
View from above orbital plane
View from above satellite
View from above satellite

Ground track
Ground track

The orbit data is extracted from the following two-line orbital elements,

1 20691U 90050C   21135.92150060 0.00000600  00000-0  78536-4 0    09
2 20691  63.3155  83.5482 0895865  51.4886 308.5114 13.42299481    01
Epoch (UTC): 15 May 2021 22:06:57
Eccentricity: 0.0895865
inclination: 63.3155°
perigee height: 431 km
apogee height: 1771 km
right ascension of ascending node: 83.5482°
argument of perigee: 51.4886°
revolutions per day: 13.42299481
mean anomaly at epoch: 308.5114°
orbit number at epoch: 0

The dashed part of the orbit path shows where the satellite is in the earth's shadow,  

DLR